Weather Roundup
Issued by NWS

Home | Current Version | Previous Version | Graphics & Text | Print | Product List | Glossary Off
Versions: 1 2 3 4 5 6 7 8 9 10 11 12 13 14 15 16 17 18 19 20 21 22 23 24 25 26 27 28 29 30 31 32 33 34 35 36 37 38 39 40 41 42 43 44 45 46 47 48 49 50

295
NZUS93 KARX 280159
HRRWXR

CURRENT HOURLY OBSERVATIONS ACROSS
MUCH OF THE UPPER MISSISSIPPI VALLEY
NATIONAL WEATHER SERVICE LA CROSSE WI
900 PM CDT FRI MAY 27 2016


...SOUTHEAST MINNESOTA...


CITY           SKY/WX    TMP DP  RH WIND       PRES   REMARKS
ROCHESTER      PTCLDY    64  62  93 N6        29.75S
ROCHESTER/MAYO MOCLDY    66  66  99 N3        29.75S
WINONA         CLOUDY    70  66  88 CALM      29.73S
AUSTIN         CLEAR     64  61  88 CALM      29.74F
ALBERT LEA     CLEAR     66  63  88 E3        29.74S
DODGE CENTER   PTCLDY    64  61  88 NE3       29.74F
PRESTON        CLOUDY    66  62  86 CALM      29.76R
OWATONNA       CLEAR     64  61  88 CALM      29.74F
FARIBAULT      NOT AVBL
$$

...ELSEWHERE IN MINNESOTA...


CITY           SKY/WX    TMP DP  RH WIND       PRES   REMARKS
MINNEAPOLIS    MOCLDY    64  60  87 NW6       29.74S
INTNL FALLS    CLOUDY    63  53  70 NE3       29.85R
DULUTH         CLOUDY    52  50  93 E9        29.81F
RED WING       PTCLDY    66  63  88 CALM      29.73R
REDWOOD FALLS  PTCLDY    65  59  81 E6        29.73R
MANKATO        CLOUDY    66  61  82 E6        29.74S
WORTHINGTON    CLOUDY    69  59  70 E5        29.74R
FAIRMONT       MOCLDY    70  61  73 E8        29.73R
$$

...SOUTHWEST WISCONSIN...


CITY           SKY/WX    TMP DP  RH WIND       PRES   REMARKS
LA CROSSE      MOCLDY    69  67  93 CALM      29.72R
PRAIRIE DU CHI PTCLDY    68  65  90 CALM      29.73S
BOSCOBEL       CLEAR     67  65  93 CALM      29.74R
LONE ROCK      NOT AVBL
PLATTEVILLE    MOCLDY    72  68  89 SE6       29.76S
FORT MC COY    CLOUDY    69  69  99 CALM      29.74S
MAUSTON-NEW LI HVY RAIN  70  68  95 E3        29.75R
VIROQUA        MOCLDY    67  64  91 SE6       29.75R
WIS DELLS      CLOUDY    71  65  82 SE9       29.76F
$$

...ELSEWHERE IN WISCONSIN...


CITY           SKY/WX    TMP DP  RH WIND       PRES   REMARKS
MILWAUKEE      MOCLDY    69  66  90 S9        29.83S
MADISON        MOCLDY    72  66  81 S9        29.78R
GREEN BAY      CLOUDY    67  65  93 SE9       29.83R FOG
EAU CLAIRE     NOT AVBL
BLACK RVR FLS  CLOUDY    72  64  77 SE3       29.73R
MEDFORD        CLOUDY    65  65 100 E9        29.77S
WAUSAU         CLOUDY    66  64  93 E10       29.76F FOG
WIS RAPIDS     MOCLDY    68  65  90 SE8       29.77F
MARSHFIELD     CLOUDY    69  65  86 E8        29.76S
RICE LAKE      CLOUDY    62  60  95 CALM      29.76S
$$

...NORTHEAST IOWA...


CITY           SKY/WX    TMP DP  RH WIND       PRES   REMARKS
WATERLOO       MOCLDY    68  63  84 N5        29.71F
DUBUQUE        MOCLDY    71  66  84 CALM      29.76R
DECORAH        PTCLDY    68  68 100 CALM      29.73S
MASON CITY     CLEAR     66  63  90 E6        29.74F
CHARLES CITY   CLEAR     70  66  88 CALM      29.74F
OELWEIN        MOCLDY    70  68  94 NW5       29.74S
$$

...ELSEWHERE IN IOWA...


CITY           SKY/WX    TMP DP  RH WIND       PRES   REMARKS
DES MOINES     LGT RAIN  73  61  65 E5        29.70S
IOWA CITY      CLOUDY    72  60  66 W9        29.75R
FORT DODGE     CLEAR     70  59  68 SE5       29.72R
MARSHALLTOWN   CLOUDY    70  65  84 NE3       29.71S
CEDAR RAPIDS   CLOUDY    70  65  84 S5        29.72S THUNDER
$$

...NORTHERN ILLINOIS...


CITY           SKY/WX    TMP DP  RH WIND       PRES   REMARKS
CHICAGO-OHARE  LGT RAIN  75  65  70 S25G38    29.85R
CHICAGO-MIDWAY TSTM      71  65  81 SW14G24   29.86R
MOLINE         MOCLDY    75  67  76 SE9       29.75R
ROCKFORD       MOCLDY    75  66  73 S13       29.82S
PEORIA         CLOUDY    74  66  76 S17G24    29.80S
$$

NOTE: "FAIR" INDICATES FEW OR NO CLOUDS BELOW 12,000 FEET WITH NO
SIGNIFICANT WEATHER AND/OR OBSTRUCTIONS TO VISIBILITY. WIND
SPEEDS ARE IN MILES-PER-HOUR.




USA.gov is the U.S. government's official web portal to all federal, state and local government web resources and services.